[[{"header":{"parameterUnit":"m.s-1","parameterCategory":1,"la1":30.2991,"la2":30.254,"lo1":-89.0895,"lo2":-89.0444,"dy":0.0017,"dx":0.0017,"nx":28,"ny":28,"refTime":"2024-10-10T03:00:00:Z","depth":0,"parameterNumber":2,"parameterNumberName":"U-component_of_WINDS"},"data":[0,0,0,0,0,0,0,0,0,0,0,0,0,0,0,0,0,0,0,0,0,0,0,0,0,0,0,0,0,0,0,0,0,0,0,0,0,0,0,0,0,0,0,0,0,0,0,0,0,0,0,0,0,0,0,0,0,0,-0.7135,-0.7135,0,-0.7122,-0.7122,-0.7121,-0.7094,-0.7093,-0.7092,-0.7092,-0.7079,-0.7079,-0.7079,0,0,0,0,0,0,0,0,0,0,0,0,0,-0.7135,-0.7135,-0.7135,-0.7135,-0.7134,-0.7122,-0.7122,-0.7121,-0.7094,-0.7093,-0.7092,-0.7092,-0.7079,-0.7079,-0.7079,0,0,0,0,0,0,0,0,0,0,0,0,0,-0.713,-0.7135,-0.7135,-0.7119,-0.7117,-0.7122,-0.7122,-0.7121,-0.7094,-0.7093,-0.7092,-0.7091,-0.7079,-0.7079,-0.7079,-0.7098,0,0,-0.708,-0.708,0,0,0,0,0,0,0,0,-0.713,-0.713,-0.7122,-0.712,-0.7118,-0.7108,-0.7117,-0.7114,-0.7094,-0.7103,-0.7092,-0.7091,-0.709,-0.7089,-0.7088,-0.7097,-0.7097,-0.708,-0.708,-0.7081,-0.7081,0,0,0,0,0,0,0,-0.7131,-0.713,-0.713,-0.7121,-0.712,-0.7112,-0.7111,-0.7116,-0.7101,-0.7102,-0.71,-0.7099,-0.7089,-0.7088,-0.7088,-0.7097,-0.708,-0.7081,-0.7081,-0.7081,-0.7119,-0.712,0,0,0,0,0,0,-0.7133,-0.7131,-0.713,-0.7129,-0.7122,-0.7113,-0.7111,-0.7112,-0.7101,-0.7098,-0.71,-0.7098,-0.7088,-0.7088,-0.7087,-0.7107,-0.7081,-0.7081,-0.7081,-0.7118,-0.7119,-0.712,0,0,0,0,0,0,-0.7133,-0.7133,-0.713,-0.7129,-0.7128,-0.7114,-0.7116,-0.7113,-0.7112,-0.7099,-0.7096,-0.7102,-0.7087,-0.7087,-0.7095,-0.7107,-0.7081,-0.7081,-0.7117,-0.7119,-0.712,-0.7148,0,0,0,0,0,0,-0.7133,-0.7134,-0.7141,-0.713,-0.7129,-0.7139,-0.7116,-0.7113,-0.7113,-0.711,-0.7101,-0.7098,-0.7087,-0.7095,-0.7096,-0.7106,-0.7081,-0.7116,-0.7118,-0.7119,-0.7146,-0.715,-0.7154,0,0,0,0,0,-0.7134,-0.715,-0.7141,-0.7141,-0.7137,-0.714,-0.7139,-0.7125,-0.7114,-0.7121,-0.7112,-0.7098,-0.7105,-0.7096,-0.7096,-0.7108,-0.7115,-0.7117,-0.7119,-0.7145,-0.715,-0.7154,0,0,0,0,0,0,-0.7163,-0.7148,-0.7138,-0.7152,-0.7147,-0.7135,-0.7143,-0.7131,-0.713,-0.7128,-0.7111,-0.7109,-0.7119,-0.7114,-0.7104,-0.7124,-0.7108,-0.711,-0.7127,-0.7132,-0.7136,-0.7136,-0.7082,0,0,0,0,0,-0.7171,-0.7174,-0.7161,-0.7174,-0.7172,-0.7158,-0.7159,-0.7148,-0.7143,-0.7141,-0.7133,-0.7129,-0.7129,-0.713,-0.7131,-0.7145,-0.7143,-0.7153,-0.7157,-0.716,-0.7162,-0.7169,-0.7173,-0.7127,-0.7127,-0.7127,0,0,-0.7187,-0.718,-0.7183,-0.7179,-0.7175,-0.7178,-0.7157,-0.7161,-0.7164,-0.7142,-0.7149,-0.7143,-0.7137,-0.7148,-0.7153,-0.7144,-0.7174,-0.7163,-0.7165,-0.7165,-0.7171,-0.7175,-0.7179,-0.7128,-0.7128,-0.7127,0,0,-0.7219,-0.7214,-0.7223,-0.7219,-0.7212,-0.7202,-0.7204,-0.7194,-0.7189,-0.7196,-0.7179,-0.7181,-0.7184,-0.718,-0.7178,-0.7207,-0.7194,-0.7207,-0.7227,-0.7234,-0.7237,-0.724,-0.725,-0.7253,-0.7209,-0.7209,-0.7209,0,-0.724,-0.7245,-0.723,-0.7235,-0.7234,-0.7214,-0.7223,-0.7219,-0.7213,-0.7212,-0.7203,-0.7204,-0.7199,-0.7208,-0.7215,-0.7215,-0.7216,-0.7208,-0.7238,-0.7241,-0.7244,-0.7252,-0.7256,-0.7211,-0.7211,-0.7211,-0.7211,0,-0.7271,-0.7274,-0.7283,-0.7276,-0.7276,-0.7284,-0.7269,-0.727,-0.726,-0.7251,-0.7258,-0.7251,-0.7248,-0.725,-0.724,-0.7258,-0.7253,-0.7241,-0.7224,-0.725,-0.7258,-0.7261,-0.7213,-0.7213,-0.7212,-0.7212,0,0,-0.7321,-0.7305,-0.7309,-0.7305,-0.7295,-0.7298,-0.7304,-0.7301,-0.7302,-0.7298,-0.7303,-0.7304,-0.7293,-0.7291,-0.7281,-0.7286,-0.7308,-0.7273,-0.7273,-0.728,-0.7326,-0.7335,-0.7339,-0.73,-0.7301,-0.7301,-0.7327,0,-0.735,-0.7359,-0.7345,-0.7358,-0.736,-0.7341,-0.7346,-0.734,-0.7332,-0.7333,-0.7324,-0.7325,-0.7311,-0.7309,-0.7314,-0.7305,-0.7317,-0.7303,-0.7303,-0.7304,-0.7305,-0.7343,-0.7353,-0.7377,-0.733,-0.733,-0.7331,0,-0.7385,-0.7382,-0.7395,-0.7383,-0.7383,-0.7388,-0.7384,-0.7385,-0.7378,-0.7372,-0.7369,-0.7356,-0.7361,-0.7345,-0.7351,-0.7341,-0.7341,-0.7336,-0.7337,-0.7336,-0.7318,-0.7343,-0.7385,-0.7388,-0.7336,-0.7335,-0.7335,0,-0.7419,-0.7418,-0.7425,-0.7423,-0.741,-0.7414,-0.7408,-0.74,-0.7399,-0.7396,-0.7395,-0.7392,-0.7391,-0.7389,-0.7376,-0.7365,-0.7383,-0.7366,-0.7377,-0.7378,-0.7381,-0.7381,-0.7423,-0.7382,-0.7382,-0.7382,-0.7382,0,-0.7453,-0.7461,-0.744,-0.7445,-0.7453,-0.7437,-0.7445,-0.7438,-0.7431,-0.7433,-0.7417,-0.7419,-0.7402,-0.7402,-0.7392,-0.7398,-0.7397,-0.7392,-0.7389,-0.7393,-0.7394,-0.7392,-0.739,-0.7383,-0.7383,-0.7383,-0.7383,0,-0.7492,-0.7479,-0.7485,-0.7472,-0.7469,-0.7475,-0.7464,-0.7467,-0.7457,-0.746,-0.746,-0.7446,-0.7445,-0.7432,-0.7429,-0.7422,-0.7431,-0.7426,-0.7434,-0.7432,-0.7443,-0.7442,-0.7485,-0.7489,-0.7447,-0.7447,-0.7447,0,-0.7514,-0.752,-0.7507,-0.7507,-0.7502,-0.7503,-0.7501,-0.7485,-0.7484,-0.7476,-0.748,-0.7478,-0.7476,-0.7476,-0.7465,-0.7463,-0.7456,-0.7471,-0.7456,-0.7459,-0.7455,-0.7455,-0.7455,-0.7475,-0.7475,-0.7476,-0.7476,0,-0.7554,-0.7547,-0.7545,-0.7541,-0.754,-0.7536,-0.7531,-0.7532,-0.7515,-0.7515,-0.7514,-0.7512,-0.7508,-0.7506,-0.7501,-0.7496,-0.7483,-0.7481,-0.7483,-0.7487,-0.7491,-0.7488,-0.7442,-0.748,-0.748,-0.7479,-0.7479,-0.7479,-0.7584,-0.7588,-0.7579,-0.7578,-0.7572,-0.7568,-0.757,-0.756,-0.7559,-0.7555,-0.7545,-0.7546,-0.7538,-0.753,-0.7525,-0.7525,-0.7517,-0.7521,-0.7521,-0.7522,-0.7524,-0.7492,-0.7524,-0.7524,-0.7524,-0.7524,-0.7524,0,-0.7622,-0.7616,-0.7614,-0.7608,-0.7606,-0.7594,-0.7588,-0.7588,-0.7588,-0.7581,-0.7579,-0.7578,-0.7575,-0.7564,-0.756,-0.7562,-0.7556,-0.7562,-0.7561,-0.756,-0.7532,-0.753,-0.7567,-0.7567,-0.7567,-0.7567,-0.7567,-0.7567,-0.7642,-0.7647,-0.7639,-0.7641,-0.7634,-0.7634,-0.7631,-0.7627,-0.7621,-0.762,-0.7618,-0.761,-0.7602,-0.7597,-0.7594,-0.7591,-0.759,-0.7598,-0.7592,-0.7566,-0.7562,-0.7558,-0.7556,-0.7598,-0.7598,-0.762,-0.762,-0.7621]},{"header":{"parameterUnit":"m.s-1","parameterCategory":1,"la1":30.2991,"la2":30.254,"lo1":-89.0895,"lo2":-89.0444,"dy":0.0017,"dx":0.0017,"nx":28,"ny":28,"refTime":"2024-10-10T03:00:00:Z","depth":0,"parameterNumber":3,"parameterNumberName":"V-component_of_WINDS"},"data":[0,0,0,0,0,0,0,0,0,0,0,0,0,0,0,0,0,0,0,0,0,0,0,0,0,0,0,0,0,0,0,0,0,0,0,0,0,0,0,0,0,0,0,0,0,0,0,0,0,0,0,0,0,0,0,0,0,0,-3.0182,-3.0182,0,-3.0205,-3.0205,-3.0205,-3.0182,-3.0181,-3.018,-3.0179,-3.0201,-3.0203,-3.0204,0,0,0,0,0,0,0,0,0,0,0,0,0,-3.0117,-3.0119,-3.0182,-3.0182,-3.0182,-3.0205,-3.0205,-3.0206,-3.0182,-3.0181,-3.018,-3.0179,-3.0201,-3.0202,-3.0204,0,0,0,0,0,0,0,0,0,0,0,0,0,-3.0143,-3.0119,-3.0182,-3.0174,-3.0173,-3.0205,-3.0205,-3.0206,-3.0182,-3.0181,-3.018,-3.0178,-3.02,-3.0202,-3.0204,-3.0245,0,0,-3.0211,-3.0212,0,0,0,0,0,0,0,0,-3.0142,-3.0146,-3.0174,-3.0174,-3.0174,-3.0189,-3.019,-3.0219,-3.0183,-3.0179,-3.0179,-3.0178,-3.0198,-3.02,-3.0208,-3.0246,-3.0247,-3.0211,-3.0212,-3.0213,-3.0214,0,0,0,0,0,0,0,-3.014,-3.0145,-3.0191,-3.0175,-3.0174,-3.0169,-3.0171,-3.0196,-3.0196,-3.0179,-3.0177,-3.0181,-3.0198,-3.0206,-3.0208,-3.0247,-3.0211,-3.0213,-3.0214,-3.0215,-3.0321,-3.0323,0,0,0,0,0,0,-3.0139,-3.0143,-3.019,-3.0192,-3.0154,-3.0171,-3.0173,-3.0186,-3.0195,-3.0196,-3.0182,-3.0179,-3.0203,-3.0206,-3.0209,-3.0257,-3.0213,-3.0215,-3.0217,-3.032,-3.0322,-3.0323,0,0,0,0,0,0,-3.0138,-3.0144,-3.0189,-3.0167,-3.0172,-3.0173,-3.0187,-3.0187,-3.0195,-3.0198,-3.0197,-3.019,-3.0202,-3.0206,-3.0236,-3.0257,-3.0216,-3.0218,-3.0318,-3.032,-3.0322,-3.0354,0,0,0,0,0,0,-3.0136,-3.0143,-3.0159,-3.0168,-3.0174,-3.0217,-3.0189,-3.0188,-3.0199,-3.0196,-3.0205,-3.0205,-3.0201,-3.0233,-3.0239,-3.026,-3.022,-3.0316,-3.0319,-3.0322,-3.0351,-3.0357,-3.0362,0,0,0,0,0,-3.0134,-3.0166,-3.0159,-3.0165,-3.0193,-3.0218,-3.0221,-3.0216,-3.02,-3.0216,-3.0218,-3.0205,-3.0255,-3.0237,-3.0242,-3.0264,-3.0315,-3.0318,-3.0322,-3.0348,-3.0356,-3.0362,0,0,0,0,0,0,-3.0158,-3.0167,-3.016,-3.0196,-3.0206,-3.0214,-3.0233,-3.0224,-3.0239,-3.0235,-3.0228,-3.0231,-3.0263,-3.0267,-3.0247,-3.0305,-3.0282,-3.0287,-3.0301,-3.0308,-3.0313,-3.0311,-3.0222,0,0,0,0,0,-3.0168,-3.0188,-3.0194,-3.0225,-3.0231,-3.0231,-3.0242,-3.0238,-3.0248,-3.0252,-3.0256,-3.0267,-3.0285,-3.0297,-3.0314,-3.0352,-3.0354,-3.0371,-3.0376,-3.0381,-3.0384,-3.0406,-3.0413,-3.0335,-3.0335,-3.0335,0,0,-3.0187,-3.0195,-3.0207,-3.023,-3.0238,-3.0259,-3.0235,-3.0258,-3.0273,-3.0255,-3.0285,-3.0289,-3.03,-3.0335,-3.0351,-3.0339,-3.0407,-3.0385,-3.0389,-3.039,-3.041,-3.0418,-3.0424,-3.0337,-3.0337,-3.0336,0,0,-3.0233,-3.0241,-3.0268,-3.0277,-3.029,-3.029,-3.0297,-3.0307,-3.0309,-3.0339,-3.0326,-3.0345,-3.0376,-3.0385,-3.0393,-3.0446,-3.0435,-3.0452,-3.048,-3.0501,-3.0508,-3.0513,-3.0531,-3.0538,-3.0456,-3.0456,-3.0456,0,-3.0255,-3.0286,-3.0283,-3.0307,-3.0317,-3.0305,-3.0332,-3.0341,-3.0358,-3.0365,-3.0353,-3.0393,-3.04,-3.0437,-3.045,-3.0458,-3.0465,-3.045,-3.0507,-3.0513,-3.0517,-3.0535,-3.0542,-3.0458,-3.0458,-3.0458,-3.0457,0,-3.0313,-3.0335,-3.0355,-3.0374,-3.0387,-3.0413,-3.0413,-3.0427,-3.0422,-3.0424,-3.0455,-3.0464,-3.0482,-3.0491,-3.0486,-3.0529,-3.0521,-3.0508,-3.0485,-3.0527,-3.0543,-3.055,-3.0461,-3.046,-3.046,-3.0459,0,0,-3.0371,-3.039,-3.0397,-3.0406,-3.0421,-3.0437,-3.0463,-3.0483,-3.0495,-3.0508,-3.0529,-3.0558,-3.0546,-3.0556,-3.0553,-3.0571,-3.0613,-3.0556,-3.0556,-3.0566,-3.066,-3.0668,-3.0676,-3.0607,-3.0608,-3.0609,-3.0659,0,-3.0417,-3.0462,-3.0461,-3.0502,-3.0523,-3.0513,-3.0535,-3.0547,-3.055,-3.0568,-3.0572,-3.0592,-3.0576,-3.0582,-3.06,-3.0604,-3.0631,-3.06,-3.0625,-3.0626,-3.0621,-3.0685,-3.0693,-3.074,-3.0665,-3.0666,-3.0667,0,-3.0475,-3.0492,-3.0536,-3.055,-3.0558,-3.0578,-3.0597,-3.0615,-3.0628,-3.0629,-3.0642,-3.0636,-3.0663,-3.0641,-3.0677,-3.0656,-3.0667,-3.0671,-3.0673,-3.0673,-3.0648,-3.0686,-3.0754,-3.0761,-3.0677,-3.0676,-3.0676,0,-3.0512,-3.0546,-3.0577,-3.0585,-3.0602,-3.0617,-3.0624,-3.0636,-3.0649,-3.0665,-3.0673,-3.0693,-3.0703,-3.0718,-3.0718,-3.0702,-3.0755,-3.0733,-3.0756,-3.0756,-3.0766,-3.0765,-3.0836,-3.0776,-3.0775,-3.0775,-3.0775,0,-3.0562,-3.059,-3.0594,-3.0613,-3.0644,-3.0643,-3.0673,-3.068,-3.0691,-3.0711,-3.0704,-3.0723,-3.0722,-3.0742,-3.0742,-3.0772,-3.0777,-3.0779,-3.0778,-3.0779,-3.0778,-3.0784,-3.078,-3.0777,-3.0777,-3.0776,-3.0776,0,-3.0608,-3.0612,-3.0645,-3.0659,-3.0664,-3.0686,-3.0697,-3.0716,-3.072,-3.0745,-3.0751,-3.0757,-3.078,-3.0782,-3.0808,-3.0809,-3.0845,-3.0842,-3.0841,-3.0839,-3.0863,-3.086,-3.0938,-3.0948,-3.0883,-3.0883,-3.0884,0,-3.0638,-3.0659,-3.0676,-3.069,-3.0699,-3.072,-3.0733,-3.0735,-3.0749,-3.0767,-3.0783,-3.0806,-3.0823,-3.086,-3.0867,-3.0887,-3.0884,-3.091,-3.0886,-3.0887,-3.0883,-3.0881,-3.0883,-3.0914,-3.0914,-3.0915,-3.0915,0,-3.0692,-3.0694,-3.0713,-3.0735,-3.0751,-3.0768,-3.0783,-3.0794,-3.0798,-3.0814,-3.0838,-3.0852,-3.088,-3.0902,-3.0923,-3.093,-3.0923,-3.0923,-3.093,-3.0929,-3.0927,-3.0928,-3.0851,-3.0921,-3.092,-3.092,-3.0919,-3.0919,-3.073,-3.0748,-3.0764,-3.0787,-3.0799,-3.0814,-3.0832,-3.084,-3.086,-3.0883,-3.0883,-3.091,-3.0925,-3.0952,-3.0962,-3.0982,-3.0973,-3.0983,-3.0985,-3.0987,-3.0989,-3.0926,-3.0986,-3.0986,-3.0986,-3.0986,-3.0986,0,-3.0782,-3.0793,-3.0814,-3.0836,-3.0855,-3.0849,-3.0867,-3.0882,-3.0905,-3.092,-3.0939,-3.0967,-3.099,-3.0999,-3.1021,-3.1036,-3.1034,-3.1042,-3.104,-3.1042,-3.0996,-3.0987,-3.1044,-3.1044,-3.1044,-3.1044,-3.1044,-3.1044,-3.0811,-3.0843,-3.0847,-3.0885,-3.0895,-3.0921,-3.0932,-3.0946,-3.0959,-3.0991,-3.101,-3.1017,-3.103,-3.1054,-3.1074,-3.1077,-3.1084,-3.1094,-3.1095,-3.1051,-3.1045,-3.1039,-3.1031,-3.1096,-3.1096,-3.1139,-3.1139,-3.114]}]]